Regional Weather Roundup
Issued by NWS

Home | Current Version | Previous Version | Graphics & Text | Print | Product List | Glossary On
Versions: 1 2 3 4 5 6 7 8 9 10 11 12 13 14 15 16 17 18 19 20 21 22 23 24 25 26 27 28 29 30 31 32 33 34 35 36 37 38 39 40 41 42 43 44 45 46 47 48 49 50
000
ASUS43 KLMK 292010
RWRKY
KENTUCKY REGIONAL WEATHER ROUNDUP
NATIONAL WEATHER SERVICE LOUISVILLE KY
400 PM EDT SAT AUG 29 2015

NOTE "FAIR" INDICATES FEW OR NO CLOUDS BELOW 12,000 FEET
WITH NO SIGNIFICANT WEATHER AND/OR OBSTRUCTIONS TO VISIBILITY.

KYZ001>023-026-027-061>063-070>075-292100-
WESTERN AND SOUTH CENTRAL KENTUCKY

CITY           SKY/WX    TMP DP  RH WIND       PRES   REMARKS
PADUCAH        MOSUNNY   87  66  49 SW10      30.02F
HENDERSON      PTSUNNY   88  70  55 W8        30.02F HX  92
OWENSBORO      PTSUNNY   89  68  49 S9        30.04F HX  92
HOPKINSVILLE   MOSUNNY   89  65  44 SW5       30.05F HX  90
BOWLING GREEN  PTSUNNY   87  69  54 SE13      30.07F HX  91
GLASGOW        LGT RAIN  79  65  62 SW17G28   30.10R
$$

KYZ024-025-028>034-038-045-046-053-292100-
NORTH CENTRAL KENTUCKY

CITY           SKY/WX    TMP DP  RH WIND       PRES   REMARKS
LOUISVILLE/SDF PTSUNNY   87  67  51 VRB6      30.05F HX  90
LOUISVILLE/LOU MOSUNNY   88  66  48 S9        30.06F HX  90
FORT KNOX      MOSUNNY   86  67  51 S7        30.06S
$$

KYZ035>037-039>044-047>052-055>060-089>105-292100-
NORTHEAST KENTUCKY

CITY           SKY/WX    TMP DP  RH WIND       PRES   REMARKS
LEXINGTON      PTSUNNY   83  66  56 SW6       30.10F
COVINGTON      PTSUNNY   80  69  69 NW7       30.08F
FRANKFORT      PTSUNNY   85  67  54 SW6       30.08F
$$

KYZ054-064>069-076>088-106>120-292100-
SOUTHEAST KENTUCKY

CITY           SKY/WX    TMP DP  RH WIND       PRES   REMARKS
JACKSON        PTSUNNY   82  65  56 VRB5      30.15F
LONDON         PTSUNNY   83  63  50 S8        30.14F
SOMERSET       MOSUNNY   82  64  54 S8        30.13F
MIDDLESBORO    CLOUDY    83  65  52 CALM      30.15F
MONTICELLO     MOCLDY    86  70  58 VRB7      30.14F HX  90
$$




USA.gov is the U.S. government's official web portal to all federal, state and local government web resources and services.